Regional Weather Roundup
Issued by NWS

Home | Current Version | Previous Version | Graphics & Text | Print | Product List | Glossary Off
Versions: 1 2 3 4 5 6 7 8 9 10 11 12 13 14 15 16 17 18 19 20 21 22 23 24 25 26 27 28 29 30 31 32 33 34 35 36 37 38 39 40 41 42 43 44 45 46 47 48 49 50

000
ASUS44 KMEG 261910
RWRTN
TENNESSEE HOURLY STATE WEATHER ROUNDUP
NATIONAL WEATHER SERVICE MEMPHIS TN
200 PM CDT WED JUL 26 2017

TNZ002-004-019-021-049-052-054-088>092-262000-
WEST TENNESSEE

CITY           SKY/WX    TMP DP  RH WIND       PRES   REMARKS
MEMPHIS INTL   MOSUNNY   94  73  50 VRB7      30.08F HX 103
NWS MEMPHIS      N/A     92 N/A N/A MISG        N/A
JACKSON        MOSUNNY   94  75  54 SW7       30.07F HX 105
SOMERVILLE       N/A     95  75  52 W7G13     30.06F HX 107
COVINGTON      PTSUNNY   91  75  59 W7        30.06F HX 102
UNION CITY     SUNNY     91  75  59 SW9       30.05S HX 102
BOLIVAR        MOSUNNY   95  72  46 S9        30.06F HX 103
HUNTINGDON     MOSUNNY   95  75  52 W9        30.06F HX 107
LEXINGTON      SUNNY     93  73  52 S6        30.07F HX 102
SELMER         MOSUNNY   93  75  55 W9        30.07F HX 104
SAVANNAH       MOSUNNY   95  73  49 W8        30.06F HX 105
$$

TNZ008-025-027-028-033-062-065-066-262000-
NORTH MIDDLE TENNESSEE

CITY           SKY/WX    TMP DP  RH WIND       PRES   REMARKS
NASHVILLE      PTSUNNY   93  69  45 VRB3      30.08F HX  98
PORTLAND       MOSUNNY   93  73  52 SW6       30.07F HX 102
CLARKSVILLE    MOSUNNY   94  74  52 W7        30.06F HX 104
SMYRNA         LGT RAIN  90  76  63 E6        30.09F HX 101
COOKEVILLE     MOSUNNY   90  73  58 NW5       30.11F HX  98
GALLATIN       MOSUNNY   95  72  46 VRB5      30.09F HX 103
CROSSVILLE     SUNNY     86  69  56 VRB3      30.17F HX  90
$$

TNZ061-075-076-078-094-096-097-262000-
SOUTH MIDDLE TENNESSEE

CITY           SKY/WX    TMP DP  RH WIND       PRES   REMARKS
FAYETTEVILLE   SUNNY     91  73  55 CALM      30.10F HX 100
TULLAHOMA      MOSUNNY   90  72  55 SW7       30.13S HX  96
WINCHESTER     MOSUNNY   91  72  52 VRB5      30.11F HX  98
MCMINNVILLE    SUNNY     91  75  59 W5        30.11F HX 102
COLUMBIA       SUNNY     91  73  55 SW5       30.06F HX 100
SHELBYVILLE    MOSUNNY   91  73  55 CALM      30.09F HX 100
$$

TNZ017-018-042-046-047-262000-
NORTHEAST TENNESSEE

CITY           SKY/WX    TMP DP  RH WIND       PRES   REMARKS
TRI CITIES     MOSUNNY   92  62  36 VRB5      30.14F HX  92
ELIZABETHTON   SUNNY     90  63  40 W7        30.14F HX  90
$$

TNZ012-013-036-069-073-074-262000-
CENTRAL EAST TENNESSEE

CITY           SKY/WX    TMP DP  RH WIND       PRES   REMARKS
KNOXVILLE      MOSUNNY   92  65  40 NW7       30.09F HX  94
OAK RIDGE      MOSUNNY   92  68  45 VRB5      30.11F HX  96
DOWNTOWN KNOXV SUNNY     93  70  46 SE6       30.08F HX  99
GATLINBURG     MOSUNNY   91  63  38 CALM      30.09F HX  92
MORRISTOWN     SUNNY     91  66  43 VRB6      30.12F HX  94
JACKSBORO      MOSUNNY   88  70  55 VRB3      30.15F HX  92
$$

TNZ083-085-099-262000-
SOUTHEAST TENNESSEE

CITY           SKY/WX    TMP DP  RH WIND       PRES   REMARKS
CHATTANOOGA    MOSUNNY   94  69  44 NW3       30.09F HX  99
DAYTON         CLEAR     91  73  55 CALM      30.09F HX 100
$$

SKY/WX REPORTED AS FAIR MEANS FEW OR NO CLOUDS BELOW
12 THOUSAND FEET.




USA.gov is the U.S. government's official web portal to all federal, state and local government web resources and services.